| time (UTC) | temp C | wind direction | speed KPH | gust KPH | rain 1hr cm | rain 24hr cm | rain mn cm | humidity % | barometer mb |
| 20260503213002 | 18 | 300 | 8.0 | 20.9 | 0.00 | 0.03 | 0.00 | 32 | 1002.5 |
| 20260503211614 | 18 | 317 | 6.4 | 25.7 | 0.00 | 0.03 | 0.00 | 29 | 1002.6 |
| 20260503210057 | 18 | 327 | 17.7 | 32.2 | 0.00 | 0.03 | 0.00 | 29 | 1002.7 |
| 20260503204554 | 18 | 316 | 11.3 | 30.6 | 0.00 | 0.03 | 0.00 | 30 | 1003.0 |
| 20260503203053 | 17 | 317 | 8.0 | 22.5 | 0.00 | 0.03 | 0.00 | 26 | 1003.1 |
| 20260503201551 | 17 | 340 | 12.9 | 22.5 | 0.00 | 0.03 | 0.00 | 25 | 1003.2 |
| 20260503200057 | 17 | 329 | 12.9 | 24.1 | 0.00 | 0.03 | 0.00 | 26 | 1003.4 |
| 20260503194547 | 17 | 311 | 12.9 | 24.1 | 0.00 | 0.03 | 0.00 | 25 | 1003.5 |
| 20260503193056 | 17 | 316 | 14.5 | 24.1 | 0.00 | 0.03 | 0.00 | 27 | 1003.6 |
| 20260503191549 | 17 | 330 | 9.7 | 24.1 | 0.00 | 0.03 | 0.00 | 22 | 1003.6 |
| 20260503190050 | 17 | 315 | 11.3 | 22.5 | 0.00 | 0.03 | 0.00 | 25 | 1003.8 |
| 20260503184551 | 17 | 322 | 12.9 | 29.0 | 0.00 | 0.03 | 0.00 | 23 | 1003.8 |
| 20260503183042 | 17 | 325 | 12.9 | 29.0 | 0.00 | 0.03 | 0.00 | 28 | 1003.9 |
| 20260503181555 | 17 | 328 | 14.5 | 27.4 | 0.00 | 0.03 | 0.00 | 24 | 1004.1 |
| 20260503180048 | 17 | 329 | 12.9 | 27.4 | 0.00 | 0.03 | 0.00 | 34 | 1004.1 |
| 20260503174544 | 16 | 340 | 12.9 | 27.4 | 0.00 | 0.03 | 0.00 | 36 | 1004.1 |
| 20260503173043 | 16 | 323 | 11.3 | 22.5 | 0.00 | 0.03 | 0.00 | 41 | 1004.2 |
| 20260503171530 | 16 | 295 | 11.3 | 24.1 | 0.00 | 0.03 | 0.00 | 42 | 1004.4 |
| 20260503081534 | 8 | 143 | 0.0 | 1.6 | 0.00 | 0.03 | 0.00 | 79 | 1005.0 |
| 20260503071509 | 10 | 124 | 0.0 | 6.4 | 0.00 | 0.03 | 0.00 | 76 | 1005.9 |
| 20260503054553 | 8 | 145 | 0.0 | 3.2 | 0.03 | 0.03 | 0.00 | 91 | 1007.1 |
| 20260503053051 | 8 | 158 | 0.0 | 1.6 | 0.03 | 0.03 | 0.00 | 90 | 1007.3 |
| 20260503051550 | 8 | 143 | 0.0 | 1.6 | 0.03 | 0.03 | 0.00 | 89 | 1007.2 |
| 20260503050046 | 9 | 145 | 0.0 | 3.2 | 0.03 | 0.03 | 0.00 | 83 | 1007.6 |
| 20260503044544 | 10 | 120 | 1.6 | 3.2 | 0.00 | 0.00 | 0.00 | 70 | 1008.1 |
| 20260503043040 | 11 | 257 | 0.0 | 3.2 | 0.00 | 0.00 | 0.00 | 58 | 1008.3 |
| 20260503041540 | 11 | 225 | 0.0 | 4.8 | 0.00 | 0.00 | 0.00 | 57 | 1008.3 |
| 20260503040040 | 11 | 232 | 0.0 | 4.8 | 0.00 | 0.00 | 0.00 | 57 | 1008.3 |
| 20260503034539 | 12 | 304 | 3.2 | 8.0 | 0.00 | 0.00 | 0.00 | 55 | 1008.3 |
| 20260503033040 | 11 | 232 | 0.0 | 3.2 | 0.00 | 0.00 | 0.00 | 58 | 1008.4 |
| 20260503031541 | 11 | 165 | 0.0 | 0.0 | 0.00 | 0.00 | 0.00 | 57 | 1008.4 |
| 20260503030056 | 12 | 148 | 0.0 | 1.6 | 0.00 | 0.00 | 0.00 | 56 | 1008.4 |
| 20260503024540 | 13 | 251 | 0.0 | 0.0 | 0.00 | 0.00 | 0.00 | 52 | 1008.5 |
| 20260503023037 | 13 | 289 | 0.0 | 1.6 | 0.00 | 0.00 | 0.00 | 49 | 1008.5 |
| 20260503021539 | 15 | 262 | 1.6 | 6.4 | 0.00 | 0.00 | 0.00 | 43 | 1008.4 |
| 20260503020036 | 15 | 245 | 0.0 | 6.4 | 0.00 | 0.00 | 0.00 | 43 | 1008.4 |
| 20260503014542 | 15 | 232 | 0.0 | 12.9 | 0.00 | 0.00 | 0.00 | 42 | 1008.4 |
| 20260503013034 | 15 | 248 | 4.8 | 16.1 | 0.00 | 0.00 | 0.00 | 42 | 1008.3 |
| 20260503011540 | 14 | 177 | 1.6 | 11.3 | 0.00 | 0.00 | 0.00 | 44 | 1008.3 |
| 20260503010033 | 14 | 145 | 0.0 | 4.8 | 0.00 | 0.00 | 0.00 | 44 | 1008.2 |
| 20260503004531 | 15 | 201 | 0.0 | 6.4 | 0.00 | 0.00 | 0.00 | 42 | 1008.4 |
| 20260503003030 | 15 | 172 | 0.0 | 6.4 | 0.00 | 0.00 | 0.00 | 43 | 1008.5 |
| 20260503001528 | 15 | 134 | 0.0 | 8.0 | 0.00 | 0.00 | 0.00 | 40 | 1008.7 |
| 20260503000032 | 16 | 253 | 1.6 | 11.3 | 0.00 | 0.00 | 0.00 | 38 | 1008.8 |
| 20260502234524 | 16 | 198 | 1.6 | 14.5 | 0.00 | 0.00 | 0.00 | 36 | 1009.1 |
| 20260502233023 | 16 | 232 | 0.0 | 12.9 | 0.00 | 0.00 | 0.00 | 37 | 1009.2 |
| 20260502231622 | 16 | 298 | 11.3 | 22.5 | 0.00 | 0.00 | 0.00 | 36 | 1009.3 |
| 20260502230020 | 17 | 257 | 3.2 | 22.5 | 0.00 | 0.00 | 0.00 | 35 | 1009.5 |
| 20260502224516 | 16 | 290 | 8.0 | 17.7 | 0.00 | 0.00 | 0.00 | 35 | 1009.7 |
| 20260502223015 | 16 | 259 | 6.4 | 17.7 | 0.00 | 0.00 | 0.00 | 35 | 1009.9 |
| 20260502221514 | 17 | 259 | 11.3 | 20.9 | 0.00 | 0.00 | 0.00 | 33 | 1010.0 |
| 20260502220013 | 16 | 257 | 3.2 | 19.3 | 0.00 | 0.00 | 0.00 | 34 | 1010.1 |
| 20260502214513 | 17 | 256 | 11.3 | 20.9 | 0.00 | 0.00 | 0.00 | 32 | 1010.2 |